Theta_e
346 348 347 347 347 348 351 351 352 355 357 356 356 354 355 353 349 352 346 350 350 351 349 345 348 347 346 334 333 326 325 322 320
343 347 348 346 348 348 351 352 351 354 358 357 357 356 354 353 350 348 352 348 352 353 348 347 345 346 346 344 331 331 334 325 333
339 337 347 348 346 349 350 352 352 354 356 357 357 357 354 355 352 349 346 350 351 351 354 347 347 345 343 337 330 326 329 325 334
338 337 341 347 347 347 350 352 353 354 356 358 359 359 355 353 352 344 345 349 352 351 350 351 346 345 343 340 327 329 327 326 330
338 337 339 343 347 347 348 350 352 354 356 358 360 360 356 351 346 347 342 345 347 352 353 352 349 344 341 341 330 324 324 324 328
339 338 338 343 345 348 347 348 350 353 355 357 361 361 356 353 349 348 341 336 338 348 351 349 350 345 344 338 330 325 324 327 321
338 337 336 344 344 349 347 348 349 351 354 356 358 360 358 356 352 345 337 338 341 341 343 347 349 347 342 339 330 327 324 327 324
336 338 342 341 344 345 348 348 349 349 350 352 353 356 358 358 354 350 350 350 349 345 349 350 349 352 349 345 336 331 328 331 329
338 336 337 344 341 346 349 349 349 349 348 350 350 351 355 355 357 356 356 356 355 358 356 357 356 355 354 349 342 333 325 329 334
340 338 335 340 347 346 351 353 350 350 348 349 348 349 353 352 354 356 357 357 358 357 358 357 357 356 355 352 346 335 332 336 336
336 337 335 334 339 348 349 355 355 353 352 349 349 349 352 353 354 357 357 358 358 358 358 358 358 357 354 351 346 336 330 334 332
332 331 339 335 333 346 348 353 355 357 356 352 352 353 356 357 360 361 362 361 362 361 360 359 357 353 349 348 342 333 330 330 334
331 331 333 334 335 345 349 353 355 357 358 358 354 357 357 362 363 366 365 363 362 362 359 356 351 349 347 345 342 338 339 341 338
337 331 331 336 347 350 350 354 358 358 360 362 360 361 363 362 363 363 363 362 360 355 352 351 348 346 343 342 341 341 342 340 338
342 341 341 342 349 352 356 357 360 361 361 362 363 363 362 361 361 360 360 358 354 354 349 348 347 344 343 342 342 342 341 339 338
334 343 349 353 358 359 359 359 360 360 360 359 359 358 358 359 357 355 355 353 350 349 348 345 344 343 342 342 342 342 339 339 334
350 351 351 353 355 356 356 357 357 356 355 356 355 357 356 353 352 351 351 350 350 348 345 344 342 343 342 342 340 338 337 336 335
351 351 351 352 352 355 356 358 358 356 356 355 354 354 353 353 351 348 350 348 346 344 343 343 343 341 340 340 338 338 331 328 327
350 351 352 354 355 356 358 358 354 354 353 350 345 348 346 350 347 346 347 345 343 343 342 342 340 340 338 336 335 331 327 324 326
346 347 349 348 352 352 351 351 351 351 352 351 350 349 349 348 345 344 343 342 340 339 339 338 337 337 330 329 328 326 324 325 326
Wind_Speed
37 39 36 39 42 42 44 46 42 41 42 41 38 35 37 32 34 31 30 25 22 23 20 18 22 18 18 14 12 15 13 11 11
27 37 39 38 40 43 42 45 45 44 42 42 40 36 38 35 32 37 29 33 27 24 25 19 24 23 22 19 18 13 14 11 9
19 20 35 36 38 41 41 42 45 43 43 43 41 38 39 37 35 34 38 31 31 30 22 24 23 27 26 22 19 19 17 13 17
23 17 24 34 39 40 41 39 43 45 44 42 42 40 38 39 39 37 36 36 34 33 31 28 28 27 28 23 22 21 19 18 15
20 30 25 29 32 39 41 42 42 44 44 44 44 42 40 40 39 39 39 40 39 37 34 35 34 36 32 29 26 25 22 20 23
25 12 7 32 32 40 42 44 43 43 45 45 42 42 43 43 41 41 41 42 41 40 38 40 40 39 38 35 33 32 26 21 20
22 18 18 26 23 35 43 46 47 46 45 45 44 43 44 44 44 44 42 42 41 39 42 42 42 43 41 37 37 35 30 25 22
22 15 18 15 17 30 44 45 48 49 45 46 44 45 44 45 44 43 43 41 42 42 40 42 40 41 40 38 38 37 33 29 25
21 21 16 26 25 22 30 43 48 51 49 47 45 46 47 42 42 42 42 42 40 38 38 35 36 38 38 40 40 37 34 28 24
23 24 23 14 25 28 27 34 47 51 52 46 47 46 46 44 42 44 42 39 37 37 36 34 38 37 37 38 37 32 27 25 23
26 29 29 29 20 29 29 30 35 41 44 46 45 45 43 44 43 43 41 38 36 36 37 39 38 36 35 37 36 32 35 30 26
28 31 27 33 31 32 29 34 36 38 41 47 43 44 41 42 38 40 39 36 35 36 37 34 33 30 31 34 30 28 33 31 31
32 35 29 21 33 30 31 36 36 40 39 43 48 43 44 37 35 32 35 34 32 30 27 28 26 24 25 26 23 26 23 19 21
27 36 34 24 20 27 32 37 35 39 39 39 40 37 34 34 31 32 29 28 26 23 21 18 19 19 16 15 15 19 19 19 20
8 4 11 14 20 27 33 36 34 34 32 29 30 30 28 29 30 29 27 26 21 17 17 18 17 15 15 16 18 18 18 16 16
16 6 12 15 18 22 24 27 31 31 27 27 28 27 27 27 26 24 21 20 17 17 17 16 15 13 11 14 15 15 16 17 19
13 13 16 22 23 22 23 25 28 28 29 29 30 29 28 26 25 24 19 19 19 18 17 14 12 12 12 11 12 12 10 11 16
23 25 24 24 25 24 25 28 30 31 30 31 31 27 25 23 22 22 22 21 19 16 15 13 11 8 7 9 8 7 4 4 8
29 28 27 26 22 22 23 23 25 27 24 23 23 23 21 22 22 21 22 19 19 17 15 14 11 11 11 11 12 9 5 2 1
24 23 22 19 20 18 20 21 22 22 23 23 21 20 23 21 16 15 17 16 15 16 16 15 15 15 13 9 7 7 5 4 5
Wind_Direction
193 191 194 192 194 196 196 196 202 200 205 213 218 215 216 214 211 211 208 210 210 215 210 216 233 236 242 237 214 211 215 210 196
205 186 190 190 195 196 197 196 198 202 203 211 218 219 213 216 212 212 208 214 203 214 219 214 226 234 238 240 225 226 225 216 195
212 225 182 188 192 195 196 197 197 201 204 212 216 218 215 213 215 214 215 214 214 213 215 209 230 234 238 240 218 221 220 213 203
223 221 190 189 189 192 194 196 198 200 204 207 210 214 214 214 218 221 216 212 217 222 219 220 221 233 242 237 225 223 224 216 216
210 224 219 190 188 188 188 193 198 201 203 203 209 210 210 216 220 221 223 218 218 222 220 223 226 231 237 240 233 226 227 221 210
218 214 220 187 191 184 189 193 197 201 202 204 205 204 210 216 220 223 226 228 225 223 227 227 231 234 237 239 237 230 229 227 225
223 229 243 177 191 187 192 196 195 197 201 202 204 206 209 211 219 226 229 231 233 231 231 234 233 238 242 244 242 237 231 229 229
210 221 165 185 194 195 197 198 197 197 199 201 204 207 207 213 219 226 228 228 231 236 235 235 239 237 241 245 241 237 230 228 233
206 219 225 192 200 201 201 200 202 197 197 202 202 208 211 215 219 224 227 226 226 228 230 233 234 239 242 243 241 238 232 233 237
205 198 218 206 201 206 202 204 206 198 200 199 202 209 210 215 219 222 225 226 225 226 232 233 238 240 243 240 242 229 222 236 238
245 216 208 225 229 200 206 204 197 198 196 197 204 206 213 212 216 219 222 223 224 223 228 233 236 240 246 239 240 228 223 224 241
257 259 230 218 231 211 208 199 199 201 198 198 200 208 208 211 211 215 214 216 217 225 228 237 242 244 243 238 241 237 246 254 267
251 251 251 265 238 204 197 196 195 200 198 197 201 206 207 202 200 206 205 214 223 232 235 236 238 239 242 248 252 246 256 251 246
273 240 241 246 188 178 192 194 190 191 193 195 198 200 197 193 199 200 206 217 226 220 225 224 228 235 245 244 236 239 248 259 245
310 203 191 202 191 181 184 180 187 183 184 188 187 187 186 190 198 204 208 213 213 205 213 220 223 230 228 226 231 246 252 236 232
217 233 165 143 145 149 159 172 180 172 176 173 173 173 177 184 188 181 197 189 196 203 207 214 215 215 223 222 232 248 245 235 229
146 134 132 149 144 144 150 154 154 156 157 163 165 165 174 179 183 184 182 189 192 196 198 203 199 200 216 233 236 240 224 229 228
125 120 121 126 131 134 140 148 149 151 160 166 167 172 176 175 181 180 175 181 182 189 183 180 198 205 218 188 196 212 215 225 221
99 110 112 121 127 136 140 146 154 157 167 172 169 168 170 170 177 180 175 181 177 179 182 193 194 181 191 196 198 202 199 203 212
89 102 113 131 133 140 141 146 151 151 155 158 165 160 161 159 166 171 174 178 191 191 190 189 205 214 215 214 207 203 194 227 241